When you browse on this site, cookies collect data to enhance your experience and personalize the content and advertising you see.
Visit our Privacy Policy to learn more. By continuing to use the site, you agree to this use of cookies and data.
  • In Austria
  • List of Countries
  • For 7 days
  • Water Temperature
  • Satellite Maps
  • Weather Map
  • News
  • Weather Widgets
  • user-avatar
    Login

    Hourly Weather Igls

    Today, 19 January, Saturday

    Time Temperature Precipitation Wind Pressure Humidity
    00:00 -10°C° 0 mm 2 mps 682 mmHg 73%
    01:00 -10°C° 0 mm 2 mps 682 mmHg 70%
    02:00 -10°C° 0 mm 2 mps 682 mmHg 71%
    03:00 -9°C° 0 mm 2 mps 682 mmHg 72%
    04:00 -9°C° 0 mm 2 mps 682 mmHg 72%
    05:00 -8°C° 0 mm 2 mps 681 mmHg 73%
    06:00 -8°C° 0 mm 2 mps 681 mmHg 75%
    07:00 -8°C° 0 mm 2 mps 681 mmHg 76%
    08:00 -6°C° 0 mm 2 mps 681 mmHg 77%
    09:00 -5°C° 0 mm 2 mps 681 mmHg 79%
    10:00 -4°C° 0 mm 2 mps 681 mmHg 81%
    11:00 0°C° 0 mm 1 mps 681 mmHg 79%
    12:00 +1°C° 0 mm 1 mps 681 mmHg 78%
    13:00 +3°C° 0 mm 1 mps 681 mmHg 77%
    14:00 +2°C° 0 mm 1 mps 680 mmHg 80%
    15:00 +1°C° 0 mm 1 mps 680 mmHg 82%
    16:00 -1°C° 0 mm 0 mps 680 mmHg 85%
    17:00 -1°C° 0 mm 1 mps 680 mmHg 84%
    18:00 -2°C° 0 mm 1 mps 680 mmHg 83%
    19:00 -3°C° 0 mm 1 mps 679 mmHg 82%
    20:00 -5°C° 0 mm 2 mps 679 mmHg 81%
    21:00 -6°C° 0 mm 2 mps 680 mmHg 80%
    22:00 -6°C° 0 mm 2 mps 680 mmHg 79%
    23:00 -6°C° 0 mm 2 mps 679 mmHg 79%

    Tomorrow, 20 January, Sunday

    Time Temperature Precipitation Wind Pressure Humidity
    00:00 -6°C° 0 mm 2 mps 679 mmHg 78%
    01:00 -7°C° 0 mm 2 mps 679 mmHg 78%
    02:00 -7°C° 0 mm 2 mps 679 mmHg 78%
    03:00 -8°C° 0 mm 2 mps 679 mmHg 78%
    04:00 -8°C° 0 mm 2 mps 679 mmHg 78%
    05:00 -8°C° 0 mm 2 mps 679 mmHg 78%
    06:00 -8°C° 0 mm 2 mps 679 mmHg 78%
    07:00 -8°C° 0 mm 1 mps 679 mmHg 78%
    08:00 -6°C° 0 mm 1 mps 679 mmHg 79%
    09:00 -3°C° 0 mm 1 mps 680 mmHg 80%
    10:00 -2°C° 0 mm 1 mps 680 mmHg 81%
    11:00 -1°C° 0 mm 1 mps 680 mmHg 77%
    12:00 +1°C° 0 mm 1 mps 680 mmHg 74%
    13:00 +2°C° 0 mm 1 mps 680 mmHg 70%
    14:00 +1°C° 0 mm 1 mps 680 mmHg 75%
    15:00 0°C° 0 mm 1 mps 680 mmHg 81%
    16:00 -1°C° 0 mm 1 mps 680 mmHg 86%
    17:00 -2°C° 0 mm 1 mps 680 mmHg 86%
    18:00 -4°C° 0 mm 1 mps 680 mmHg 87%
    19:00 -6°C° 0 mm 1 mps 680 mmHg 87%
    20:00 -6°C° 0 mm 1 mps 681 mmHg 85%
    21:00 -6°C° 0 mm 1 mps 681 mmHg 83%
    22:00 -6°C° 0 mm 1 mps 681 mmHg 81%
    23:00 -7°C° 0 mm 1 mps 682 mmHg 80%

    Day after tomorrow, 21 January, Monday

    Time Temperature Precipitation Wind Pressure Humidity
    00:00 -7°C° 0 mm 1 mps 682 mmHg 80%
    01:00 -7°C° 0 mm 1 mps 682 mmHg 79%
    02:00 -7°C° 0 mm 1 mps 682 mmHg 80%
    03:00 -7°C° 0 mm 1 mps 682 mmHg 80%
    04:00 -7°C° 0 mm 1 mps 682 mmHg 81%
    05:00 -7°C° 0 mm 1 mps 682 mmHg 82%
    06:00 -8°C° 0 mm 1 mps 683 mmHg 83%
    07:00 -8°C° 0 mm 1 mps 683 mmHg 85%
    08:00 -6°C° 0 mm 1 mps 683 mmHg 86%
    09:00 -4°C° 0 mm 1 mps 684 mmHg 87%
    10:00 -3°C° 0 mm 0 mps 684 mmHg 88%
    11:00 -1°C° 0 mm 1 mps 684 mmHg 87%
    12:00 0°C° 0 mm 1 mps 684 mmHg 86%
    13:00 +1°C° 0 mm 1 mps 684 mmHg 86%
    14:00 0°C° 0 mm 1 mps 683 mmHg 87%
    15:00 0°C° 0 mm 1 mps 683 mmHg 88%
    16:00 -1°C° 0 mm 1 mps 683 mmHg 90%
    17:00 -3°C° 0 mm 1 mps 683 mmHg 91%
    18:00 -4°C° 0 mm 1 mps 683 mmHg 92%
    19:00 -7°C° 0 mm 1 mps 683 mmHg 94%
    20:00 -8°C° 0 mm 1 mps 683 mmHg 92%
    21:00 -9°C° 0 mm 1 mps 683 mmHg 89%
    22:00 -9°C° 0 mm 1 mps 683 mmHg 87%
    23:00 -12°C° 0 mm 2 mps 683 mmHg 82%

    22 January, Tuesday

    Time Temperature Precipitation Wind Pressure Humidity
    00:00 -12°C° 0 mm 2 mps 682 mmHg 77%
    01:00 -12°C° 0 mm 2 mps 682 mmHg 73%
    02:00 -12°C° 0 mm 2 mps 682 mmHg 69%
    03:00 -12°C° 0 mm 2 mps 681 mmHg 66%
    04:00 -12°C° 0 mm 2 mps 681 mmHg 62%
    05:00 -12°C° 0 mm 2 mps 680 mmHg 61%
    06:00 -12°C° 0 mm 2 mps 680 mmHg 59%
    07:00 -12°C° 0 mm 2 mps 679 mmHg 58%
    08:00 -9°C° 0 mm 2 mps 679 mmHg 61%
    09:00 -7°C° 0 mm 2 mps 679 mmHg 64%
    10:00 -5°C° 0 mm 2 mps 679 mmHg 67%
    11:00 -3°C° 0 mm 2 mps 678 mmHg 66%
    12:00 0°C° 0 mm 1 mps 677 mmHg 65%
    13:00 +2°C° 0 mm 1 mps 676 mmHg 64%
    14:00 +1°C° 0 mm 1 mps 676 mmHg 68%
    15:00 +1°C° 0 mm 1 mps 675 mmHg 71%
    16:00 0°C° 0 mm 1 mps 674 mmHg 75%
    17:00 -4°C° 0 mm 2 mps 673 mmHg 72%
    18:00 -7°C° 0 mm 2 mps 672 mmHg 69%
    19:00 -9°C° 0 mm 2 mps 672 mmHg 67%
    20:00 -10°C° 0 mm 3 mps 671 mmHg 67%
    21:00 -12°C° 0 mm 3 mps 671 mmHg 67%
    22:00 -12°C° 0 mm 3 mps 670 mmHg 67%
    23:00 -12°C° 0 mm 3 mps 670 mmHg 70%

    23 January, Wednesday

    Time Temperature Precipitation Wind Pressure Humidity
    00:00 -10°C° 0 mm 2 mps 669 mmHg 72%
    01:00 -12°C° 0 mm 2 mps 669 mmHg 75%
    02:00 -10°C° 0 mm 2 mps 668 mmHg 76%
    03:00 -10°C° 0 mm 2 mps 668 mmHg 77%
    04:00 -9°C° 0 mm 1 mps 667 mmHg 78%
    05:00 -8°C° 0 mm 1 mps 667 mmHg 78%
    06:00 -8°C° 0 mm 1 mps 667 mmHg 78%
    07:00 -8°C° 0 mm 1 mps 666 mmHg 78%
    08:00 -7°C° 0.1 mm 1 mps 666 mmHg 80%
    09:00 -6°C° 0.1 mm 1 mps 666 mmHg 82%
    10:00 -4°C° 0.1 mm 1 mps 666 mmHg 84%
    11:00 -3°C° 0.1 mm 1 mps 665 mmHg 84%
    12:00 -2°C° 0.1 mm 1 mps 665 mmHg 84%
    13:00 -2°C° 0.1 mm 1 mps 664 mmHg 84%
    14:00 -2°C° 0.2 mm 1 mps 664 mmHg 87%
    15:00 -4°C° 0.2 mm 2 mps 664 mmHg 90%
    16:00 -4°C° 0.2 mm 2 mps 663 mmHg 93%
    17:00 -5°C° 0.4 mm 2 mps 663 mmHg 94%
    18:00 -6°C° 0.4 mm 2 mps 663 mmHg 95%
    19:00 -7°C° 0.4 mm 2 mps 663 mmHg 96%
    20:00 -8°C° 0.5 mm 2 mps 663 mmHg 96%
    21:00 -7°C° 0.5 mm 1 mps 662 mmHg 96%
    22:00 -8°C° 0.5 mm 1 mps 662 mmHg 96%
    23:00 -8°C° 0.4 mm 1 mps 662 mmHg 96%

    24 January, Thursday

    Time Temperature Precipitation Wind Pressure Humidity
    00:00 -8°C° 0.4 mm 1 mps 662 mmHg 96%
    01:00 -9°C° 0.4 mm 1 mps 662 mmHg 96%
    02:00 -9°C° 0.3 mm 1 mps 662 mmHg 95%
    03:00 -9°C° 0.3 mm 0 mps 662 mmHg 93%
    04:00 -8°C° 0.3 mm 0 mps 662 mmHg 92%
    05:00 -9°C° 0.1 mm 0 mps 663 mmHg 91%
    06:00 -9°C° 0.1 mm 0 mps 663 mmHg 90%
    07:00 -10°C° 0.1 mm 0 mps 663 mmHg 89%
    08:00 -8°C° 0 mm 0 mps 663 mmHg 88%
    09:00 -7°C° 0 mm 1 mps 664 mmHg 87%
    10:00 -6°C° 0 mm 1 mps 664 mmHg 86%
    11:00 -4°C° 0.1 mm 1 mps 664 mmHg 88%
    12:00 -5°C° 0.1 mm 2 mps 664 mmHg 89%
    13:00 -5°C° 0.1 mm 2 mps 664 mmHg 90%
    14:00 -5°C° 0.3 mm 2 mps 664 mmHg 92%
    15:00 -5°C° 0.3 mm 2 mps 664 mmHg 93%
    16:00 -6°C° 0.3 mm 2 mps 664 mmHg 94%
    17:00 -6°C° 0.5 mm 2 mps 665 mmHg 94%
    18:00 -6°C° 0.5 mm 2 mps 665 mmHg 95%
    19:00 -6°C° 0.5 mm 1 mps 665 mmHg 95%
    20:00 -6°C° 0.2 mm 1 mps 665 mmHg 95%
    21:00 -6°C° 0.2 mm 1 mps 665 mmHg 94%
    22:00 -6°C° 0.2 mm 1 mps 665 mmHg 94%
    23:00 -6°C° 0.1 mm 1 mps 665 mmHg 94%
    Show more